EW8324 Weather Reports


Display with metric or nautical units.
time (UTC)temp
F
wind
direction
speed
MPH
gust
MPH
rain 1hr
in
rain 24hr
in
rain mn
in
humidity
%
barometer
mb
20210624060346 83 37 0.0 0.0 0.00 0.03 0.00 85 1015.7
20210624055848 83 37 0.0 0.0 0.00 0.03 0.00 85 1015.8
20210624055347 83 37 0.0 0.0 0.00 0.03 0.00 85 1015.7
20210624054850 83 37 0.0 0.0 0.00 0.03 0.00 85 1015.7
20210624054347 83 47 0.0 0.0 0.00 0.03 0.00 85 1015.6
20210624053849 83 47 0.0 0.0 0.00 0.03 0.00 85 1015.7
20210624053346 83 47 0.0 0.0 0.00 0.03 0.00 85 1015.6
20210624052847 83 69 0.0 0.0 0.00 0.03 0.00 85 1015.6
20210624052347 83 71 0.0 3.0 0.00 0.03 0.00 84 1015.6
20210624051847 83 72 1.0 3.0 0.00 0.03 0.00 84 1015.7
20210624051346 83 72 0.0 0.0 0.00 0.03 0.00 84 1015.7
20210624050847 83 72 0.0 0.0 0.00 0.03 0.00 84 1015.7
20210624050345 83 72 0.0 0.0 0.00 0.03 0.00 83 1015.7
20210624045847 83 72 0.0 0.0 0.00 0.03 0.03 83 1015.7
20210624045345 83 72 0.0 0.0 0.00 0.03 0.03 83 1015.7
20210624044847 83 72 0.0 0.0 0.00 0.03 0.03 83 1015.8
20210624044345 83 72 0.0 0.0 0.00 0.03 0.03 83 1015.7
20210624043845 83 72 0.0 0.0 0.00 0.03 0.03 83 1015.7
20210624043345 83 72 0.0 0.0 0.00 0.03 0.03 83 1015.6
20210624042845 83 72 0.0 0.0 0.00 0.03 0.03 82 1015.6
20210624042345 83 72 0.0 0.0 0.00 0.03 0.03 82 1015.7
20210624041846 0 0.0 0.0 0.00 0.03 0.03 1015.5
20210624041344 84 72 0.0 0.0 0.00 0.03 0.03 81 1015.4
20210624040844 84 72 0.0 0.0 0.00 0.03 0.03 81 1015.3
20210624040343 84 64 0.0 0.0 0.00 0.03 0.03 81 1015.2
20210624035845 84 64 0.0 0.0 0.00 0.03 0.03 81 1015.2
20210624035343 84 165 0.0 0.0 0.00 0.03 0.03 80 1015.2
20210624034844 84 165 0.0 0.0 0.00 0.03 0.03 80 1015.2
20210624034343 84 165 0.0 0.0 0.00 0.03 0.03 80 1015.2
20210624033845 84 165 0.0 0.0 0.00 0.03 0.03 79 1015.2
20210624033342 84 165 0.0 2.0 0.00 0.03 0.03 79 1015.1
20210624032844 84 165 0.0 2.0 0.00 0.03 0.03 79 1015.0
20210624032342 85 195 0.0 0.0 0.00 0.03 0.03 79 1015.0
20210624031844 85 195 0.0 0.0 0.00 0.03 0.03 79 1014.9
20210624031342 85 195 0.0 0.0 0.00 0.03 0.03 79 1014.8
20210624030844 85 195 0.0 0.0 0.00 0.03 0.03 78 1014.9
20210624030342 85 150 0.0 0.0 0.00 0.03 0.03 78 1014.9
20210624025844 85 150 0.0 0.0 0.00 0.03 0.03 78 1014.9
20210624025342 85 61 0.0 2.0 0.00 0.03 0.03 78 1014.8
20210624024843 85 61 0.0 3.0 0.00 0.03 0.03 78 1014.8
20210624024342 85 61 0.0 3.0 0.00 0.03 0.03 77 1014.7
20210624023844 85 61 0.0 0.0 0.00 0.03 0.03 77 1014.5
20210624023341 85 59 0.0 3.0 0.00 0.03 0.03 77 1014.6
20210624022843 85 54 0.0 4.0 0.00 0.03 0.03 77 1014.4
20210624022341 85 51 1.0 4.0 0.00 0.03 0.03 76 1014.4
20210624021844 86 42 2.0 4.0 0.00 0.03 0.03 75 1014.3
20210624021342 86 45 0.0 3.0 0.00 0.03 0.03 75 1014.3
20210624020842 86 345 0.0 3.0 0.00 0.03 0.03 76 1014.3
20210624020340 0 0.0 0.0 0.00 0.03 0.03 1014.3
20210624015841 86 37 0.0 1.0 0.00 0.03 0.03 75 1014.4
20210624015339 86 172 0.0 1.0 0.00 0.03 0.03 75 1014.1
20210624014841 86 80 0.0 0.0 0.00 0.03 0.03 75 1014.1
20210624014339 87 80 0.0 3.0 0.00 0.03 0.03 75 1014.0
20210624013841 87 7 0.0 3.0 0.00 0.03 0.03 75 1013.9
20210624013339 87 221 0.0 1.0 0.00 0.03 0.03 75 1013.8
20210624012840 87 335 0.0 0.0 0.00 0.03 0.03 75 1013.8
20210624012339 87 336 0.0 0.0 0.00 0.03 0.03 76 1013.7
20210624011843 87 336 0.0 1.0 0.00 0.03 0.03 76 1013.9
20210624011338 87 331 0.0 1.0 0.00 0.03 0.03 76 1013.8
20210624010840 87 331 0.0 3.0 0.00 0.03 0.03 76 1013.7
20210624010339 88 339 0.0 3.0 0.00 0.03 0.03 76 1013.8
20210624005840 88 339 0.0 5.0 0.00 0.03 0.03 76 1013.7
20210624005339 88 314 2.0 5.0 0.00 0.03 0.03 75 1013.7
20210624004840 88 193 0.0 4.0 0.00 0.03 0.03 75 1013.6
20210624004338 88 65 0.0 5.0 0.00 0.03 0.03 75 1013.6
20210624003840 88 4 0.0 5.0 0.00 0.03 0.03 75 1013.7
20210624003338 88 23 0.0 0.0 0.00 0.03 0.03 75 1013.7
20210624002841 88 143 0.0 2.0 0.00 0.03 0.03 75 1013.7
20210624002338 89 270 0.0 2.0 0.00 0.03 0.03 74 1013.7
20210624001839 89 24 0.0 2.0 0.00 0.03 0.03 74 1013.7
20210624001337 89 25 0.0 7.0 0.00 0.03 0.03 74 1013.6
20210624000839 89 338 0.0 7.0 0.00 0.03 0.03 74 1013.6
20210624000337 89 107 0.0 4.0 0.00 0.03 0.03 73 1013.6
20210623235838 90 16 0.0 3.0 0.00 0.03 0.03 73 1013.6
20210623235337 90 55 0.0 4.0 0.00 0.03 0.03 72 1013.6
20210623234839 90 332 0.0 4.0 0.00 0.03 0.03 72 1013.5
20210623234337 90 75 1.0 5.0 0.00 0.03 0.03 72 1013.4
20210623233838 91 66 1.0 5.0 0.00 0.03 0.03 71 1013.5
20210623233336 91 69 2.0 3.0 0.00 0.03 0.03 71 1013.5
20210623232838 91 44 0.0 1.0 0.00 0.03 0.03 70 1013.6
20210623232332 91 181 0.0 1.0 0.00 0.03 0.03 70 1013.6
20210623231836 92 356 0.0 5.0 0.00 0.03 0.03 70 1013.6
20210623231336 92 301 1.0 5.0 0.00 0.03 0.03 69 1013.7
20210623230837 92 260 0.0 0.0 0.00 0.03 0.03 69 1013.7
20210623230335 92 65 0.0 0.0 0.00 0.03 0.03 68 1013.7
20210623225838 92 55 0.0 0.0 0.00 0.03 0.03 69 1013.6
20210623225334 92 107 0.0 0.0 0.00 0.03 0.03 69 1013.7
20210623224837 92 227 0.0 4.0 0.00 0.03 0.03 70 1013.5
20210623224334 92 338 0.0 4.0 0.00 0.03 0.03 70 1013.6
20210623223835 92 68 1.0 2.0 0.00 0.03 0.03 69 1013.6
20210623223334 91 69 0.0 1.0 0.00 0.03 0.03 69 1013.7
20210623222837 92 59 0.0 1.0 0.00 0.03 0.03 70 1013.6
20210623222334 92 338 0.0 0.0 0.00 0.03 0.03 71 1013.7
20210623221836 92 112 0.0 2.0 0.00 0.03 0.03 71 1013.6
20210623221334 92 92 0.0 4.0 0.00 0.03 0.03 70 1013.6
20210623220837 92 4 0.0 4.0 0.00 0.03 0.03 69 1013.5
20210623220333 92 51 0.0 0.0 0.00 0.03 0.03 69 1013.6
20210623215834 92 311 0.0 0.0 0.00 0.03 0.03 72 1013.5
20210623215333 92 0 0.0 0.0 0.00 0.03 0.03 71 1013.6
20210623214836 92 0 0.0 0.0 0.00 0.03 0.03 70 1013.7
20210623214333 92 58 0.0 2.0 0.00 0.03 0.03 71 1013.6
20210623213834 92 151 0.0 2.0 0.00 0.03 0.03 70 1013.7
20210623213333 92 295 0.0 6.0 0.00 0.03 0.03 69 1013.6
20210623212833 92 55 0.0 6.0 0.00 0.03 0.03 69 1013.6
20210623212332 93 86 0.0 0.0 0.00 0.03 0.03 69 1013.6
20210623211835 93 168 0.0 0.0 0.00 0.03 0.03 68 1013.7
20210623211332 93 350 0.0 3.0 0.00 0.03 0.03 69 1013.8
20210623210834 93 9 1.0 3.0 0.00 0.03 0.03 69 1013.8
20210623210332 93 65 0.0 2.0 0.00 0.03 0.03 68 1013.8
20210623205837 93 353 0.0 4.0 0.00 0.03 0.03 68 1013.9
20210623205332 93 2 1.0 4.0 0.00 0.03 0.03 67 1013.9
20210623204834 93 322 0.0 2.0 0.00 0.03 0.03 68 1013.9
20210623204332 93 345 0.0 0.0 0.00 0.03 0.03 67 1014.0
20210623203833 93 72 0.0 0.0 0.00 0.03 0.03 69 1014.0
20210623203331 93 346 0.0 4.0 0.00 0.03 0.03 69 1014.1
20210623202833 93 18 0.0 4.0 0.00 0.03 0.03 67 1014.0
20210623202331 93 90 0.0 0.0 0.00 0.03 0.03 68 1014.1
20210623201833 94 93 0.0 0.0 0.00 0.03 0.03 68 1014.1
20210623201331 93 315 0.0 0.0 0.00 0.03 0.03 68 1014.0
20210623200832 93 112 0.0 0.0 0.00 0.03 0.03 66 1014.1
20210623200331 93 7 0.0 0.0 0.00 0.03 0.03 65 1014.2
20210623195839 93 35 0.0 0.0 0.00 0.03 0.03 66 1014.2
20210623195331 93 342 0.0 0.0 0.00 0.03 0.03 67 1014.2
20210623194832 93 47 0.0 3.0 0.00 0.03 0.03 68 1014.1
20210623194331 92 33 0.0 3.0 0.00 0.03 0.03 68 1014.3
20210623193835 92 312 0.0 3.0 0.00 0.03 0.03 68 1014.3
20210623193330 92 301 1.0 2.0 0.00 0.03 0.03 70 1014.2
20210623192832 92 356 0.0 1.0 0.00 0.03 0.03 71 1014.3
20210623192330 91 66 0.0 1.0 0.00 0.03 0.03 72 1014.4
20210623191835 91 323 0.0 0.0 0.00 0.03 0.03 73 1014.5
20210623191329 90 309 0.0 0.0 0.00 0.03 0.03 74 1014.6
20210623190831 90 4 0.0 3.0 0.00 0.03 0.03 74 1014.6
20210623190330 89 69 0.0 3.0 0.00 0.04 0.03 75 1014.7
20210623185837 89 64 0.0 0.0 0.00 0.04 0.03 75 1014.9
20210623185331 88 52 0.0 3.0 0.00 0.04 0.03 75 1014.8
20210623184831 88 308 0.0 3.0 0.00 0.04 0.03 75 1014.9
20210623184329 88 44 0.0 3.0 0.00 0.04 0.03 78 1014.9
20210623183830 87 49 0.0 3.0 0.00 0.04 0.03 79 1014.8
20210623183329 86 28 0.0 1.0 0.00 0.04 0.03 77 1014.8
20210623182831 86 28 0.0 1.0 0.00 0.04 0.03 76 1015.0
20210623182329 87 27 0.0 0.0 0.00 0.04 0.03 77 1015.2
20210623181833 86 27 0.0 0.0 0.00 0.04 0.03 78 1015.3
20210623181328 86 27 0.0 0.0 0.00 0.04 0.03 78 1015.2
20210623180831 86 42 0.0 0.0 0.00 0.04 0.03 76 1015.4
20210623180328 87 13 0.0 2.0 0.00 0.04 0.03 76 1015.8
20210623175829 87 13 0.0 2.0 0.00 0.04 0.03 76 1015.6
20210623175328 87 31 0.0 0.0 0.00 0.04 0.03 78 1015.5
20210623174829 87 346 0.0 0.0 0.00 0.04 0.03 78 1015.5
20210623174328 87 345 0.0 0.0 0.00 0.04 0.03 76 1015.6
20210623173829 87 346 0.0 1.0 0.00 0.04 0.03 76 1015.5
20210623173327 87 329 0.0 3.0 0.00 0.04 0.03 77 1015.2
20210623172829 87 329 0.0 3.0 0.00 0.04 0.03 78 1015.3
20210623172327 87 14 1.0 2.0 0.00 0.04 0.03 81 1015.8
20210623171830 87 183 0.0 0.0 0.00 0.04 0.03 80 1015.6
20210623171327 87 183 0.0 0.0 0.00 0.04 0.03 77 1015.7
20210623170832 89 183 0.0 0.0 0.01 0.04 0.03 75 1015.6
20210623170328 89 183 0.0 0.0 0.03 0.04 0.03 72 1015.5
20210623165827 90 183 0.0 0.0 0.03 0.04 0.03 71 1015.7
20210623165327 91 183 0.0 0.0 0.03 0.04 0.03 70 1015.6
20210623164827 91 183 0.0 0.0 0.03 0.04 0.03 72 1015.7
20210623164327 0 0.0 0.0 0.03 0.04 0.03 1015.7
20210623163827 93 183 0.0 0.0 0.03 0.04 0.03 72 1015.7
20210623163324 93 183 0.0 0.0 0.03 0.04 0.03 72 1015.9
20210623162829 93 183 0.0 0.0 0.03 0.04 0.03 76 1015.6
20210623162325 93 183 0.0 0.0 0.03 0.04 0.03 76 1015.5
20210623161828 92 128 0.0 0.0 0.03 0.04 0.03 75 1015.4
20210623161324 93 128 0.0 0.0 0.03 0.04 0.03 71 1015.3
20210623160828 94 128 0.0 0.0 0.02 0.03 0.02 71 1015.3
20210623160324 94 103 0.0 0.0 0.00 0.01 0.00 68 1015.6
20210623155825 94 102 0.0 0.0 0.00 0.01 0.00 67 1015.5
20210623155323 94 68 0.0 0.0 0.00 0.01 0.00 67 1015.5
20210623154827 94 138 0.0 2.0 0.00 0.01 0.00 69 1015.6
20210623154325 93 138 0.0 2.0 0.00 0.01 0.00 70 1015.5
20210623153825 92 76 0.0 4.0 0.00 0.01 0.00 71 1015.4
20210623153323 92 59 2.0 4.0 0.00 0.01 0.00 69 1015.4
20210623152826 92 80 0.0 0.0 0.00 0.01 0.00 71 1015.4
20210623152324 91 260 0.0 0.0 0.00 0.01 0.00 74 1015.4
20210623151833 90 260 0.0 0.0 0.00 0.01 0.00 76 1015.5
20210623151323 89 47 0.0 0.0 0.00 0.01 0.00 78 1015.5
20210623150826 89 47 0.0 0.0 0.00 0.01 0.00 76 1015.6
20210623150322 89 47 0.0 0.0 0.00 0.01 0.00 76 1015.5
20210623145827 88 47 0.0 0.0 0.00 0.01 0.00 77 1015.5
20210623145322 88 47 0.0 0.0 0.00 0.01 0.00 79 1015.5
20210623144828 87 75 0.0 0.0 0.00 0.01 0.00 79 1015.5
20210623144321 87 75 0.0 0.0 0.00 0.01 0.00 81 1015.4
20210623143824 86 75 0.0 0.0 0.00 0.01 0.00 82 1015.4
20210623143321 86 76 0.0 0.0 0.00 0.01 0.00 83 1015.6
20210623142824 85 28 0.0 0.0 0.00 0.01 0.00 85 1015.5
20210623142321 84 28 0.0 0.0 0.00 0.01 0.00 86 1015.6
20210623141826 84 28 0.0 0.0 0.00 0.01 0.00 87 1015.6
20210623141322 84 28 0.0 0.0 0.00 0.01 0.00 87 1015.6
20210623140826 83 28 0.0 0.0 0.00 0.01 0.00 88 1015.6
20210623140320 83 28 0.0 0.0 0.00 0.01 0.00 88 1015.5
20210623135826 83 28 0.0 0.0 0.00 0.01 0.00 89 1015.5
20210623135320 82 28 0.0 0.0 0.00 0.01 0.00 90 1015.5
20210623134824 82 28 0.0 0.0 0.00 0.01 0.00 92 1015.5
20210623134320 81 28 0.0 0.0 0.00 0.01 0.00 92 1015.3
20210623133824 80 28 0.0 0.0 0.00 0.01 0.00 92 1015.4
20210623133320 80 28 0.0 0.0 0.00 0.01 0.00 92 1015.3
20210623132826 80 31 0.0 0.0 0.00 0.01 0.00 92 1015.2
20210623132320 79 31 0.0 0.0 0.00 0.01 0.00 92 1015.2
20210623131823 79 31 0.0 0.0 0.00 0.01 0.00 92 1015.3
20210623131320 79 31 0.0 0.0 0.00 0.01 0.00 92 1015.2
20210623130823 79 31 0.0 0.0 0.00 0.01 0.00 92 1015.2
20210623130318 78 33 0.0 0.0 0.00 0.01 0.00 92 1015.1
20210623125824 78 33 0.0 0.0 0.00 0.01 0.00 92 1015.2
20210623125319 78 33 0.0 0.0 0.00 0.01 0.00 92 1014.9
20210623124825 78 33 0.0 0.0 0.00 0.01 0.00 92 1014.9
20210623124318 78 33 0.0 0.0 0.00 0.01 0.00 92 1014.9
20210623123823 78 33 0.0 0.0 0.00 0.01 0.00 92 1014.8
20210623123318 78 33 0.0 0.0 0.00 0.01 0.00 92 1014.8
20210623122821 78 33 0.0 0.0 0.00 0.01 0.00 92 1014.8
20210623122314 77 33 0.0 0.0 0.00 0.01 0.00 92 1014.9
20210623121824 77 33 0.0 0.0 0.00 0.01 0.00 93 1014.7
20210623121317 77 33 0.0 0.0 0.00 0.01 0.00 92 1014.7
20210623120824 77 33 0.0 0.0 0.00 0.01 0.00 92 1014.5
20210623120317 77 33 0.0 0.0 0.00 0.01 0.00 92 1014.6
20210623115822 77 33 0.0 0.0 0.00 0.01 0.00 92 1014.5
20210623115317 77 33 0.0 0.0 0.00 0.01 0.00 92 1014.4
20210623114822 77 33 0.0 0.0 0.00 0.01 0.00 92 1014.5
20210623114313 77 33 0.0 0.0 0.00 0.01 0.00 92 1014.5
20210623113820 77 33 0.0 0.0 0.00 0.01 0.00 92 1014.4
20210623113316 77 33 0.0 0.0 0.00 0.01 0.00 92 1014.3
20210623112825 77 33 0.0 0.0 0.00 0.01 0.00 92 1014.2
20210623112315 77 33 0.0 0.0 0.00 0.01 0.00 92 1014.1
20210623111821 77 33 0.0 0.0 0.00 0.01 0.00 92 1014.2
20210623111315 77 33 0.0 0.0 0.00 0.01 0.00 92 1014.3
20210623110822 0 0.0 0.0 0.00 0.01 0.00 1014.2
20210623110314 0 0.0 0.0 0.00 0.01 0.00 1014.1
20210623105816 77 33 0.0 0.0 0.00 0.01 0.00 92 1014.0
20210623105313 77 33 0.0 0.0 0.00 0.01 0.00 92 1014.0
20210623104814 77 33 0.0 0.0 0.00 0.01 0.00 92 1013.9
20210623104313 77 33 0.0 0.0 0.00 0.01 0.00 92 1013.8
20210623103825 77 33 0.0 0.0 0.00 0.01 0.00 92 1013.7
20210623103313 77 33 0.0 0.0 0.00 0.02 0.00 92 1013.7
20210623102814 77 33 0.0 0.0 0.00 0.02 0.00 92 1013.7
20210623102313 77 33 0.0 0.0 0.00 0.06 0.00 92 1013.7
20210623101819 77 33 0.0 0.0 0.00 0.26 0.00 92 1013.7
20210623101314 77 33 0.0 0.0 0.00 0.41 0.00 92 1013.6
20210623100816 77 33 0.0 0.0 0.00 0.51 0.00 92 1013.5
20210623100312 77 33 0.0 0.0 0.00 0.58 0.00 92 1013.4
20210623095816 78 33 0.0 0.0 0.00 0.67 0.00 92 1013.5
20210623095312 78 33 0.0 0.0 0.00 0.72 0.00 92 1013.5
20210623094821 78 33 0.0 0.0 0.00 0.72 0.00 92 1013.5
20210623094312 78 33 0.0 0.0 0.00 0.73 0.00 92 1013.4
20210623093819 78 33 0.0 0.0 0.00 0.73 0.00 92 1013.5
20210623093312 78 33 0.0 0.0 0.00 0.73 0.00 92 1013.4
20210623092813 78 33 0.0 0.0 0.00 0.74 0.00 92 1013.4
20210623092311 78 33 0.0 0.0 0.00 0.76 0.00 91 1013.4
20210623091813 78 33 0.0 0.0 0.00 0.76 0.00 91 1013.4
20210623091311 78 33 0.0 0.0 0.00 0.76 0.00 91 1013.5
20210623090812 78 33 0.0 0.0 0.00 0.76 0.00 91 1013.4
20210623090311 78 33 0.0 0.0 0.00 0.76 0.00 91 1013.5
20210623085813 78 33 0.0 0.0 0.00 0.76 0.00 91 1013.4
20210623085312 78 33 0.0 0.0 0.00 0.76 0.00 91 1013.5
20210623084812 78 33 0.0 0.0 0.00 0.76 0.00 91 1013.6
20210623084311 78 33 0.0 0.0 0.00 0.76 0.00 91 1013.5
20210623083813 78 33 0.0 0.0 0.00 0.76 0.00 91 1013.5
20210623083310 78 33 0.0 0.0 0.00 0.76 0.00 90 1013.6
20210623082813 78 33 0.0 0.0 0.00 0.76 0.00 90 1013.8
20210623082310 78 33 0.0 0.0 0.00 0.76 0.00 90 1013.7
20210623081811 79 33 0.0 0.0 0.00 0.76 0.00 90 1013.7
20210623081310 79 33 0.0 0.0 0.00 0.77 0.00 90 1013.8
20210623080812 79 33 0.0 0.0 0.00 0.77 0.00 90 1013.8
20210623080309 79 33 0.0 0.0 0.00 0.78 0.00 90 1013.8
20210623075812 79 33 0.0 0.0 0.00 0.78 0.00 90 1013.8
20210623075309 79 33 0.0 0.0 0.00 0.78 0.00 90 1013.8
20210623074811 79 33 0.0 0.0 0.00 0.79 0.00 90 1013.9
20210623074310 79 33 0.0 0.0 0.00 0.79 0.00 90 1013.9
20210623073810 79 33 0.0 0.0 0.00 0.79 0.00 89 1014.0
20210623073309 79 33 0.0 0.0 0.00 0.80 0.00 89 1014.0
20210623072811 79 33 0.0 0.0 0.00 0.80 0.00 89 1014.0
20210623072309 79 33 0.0 0.0 0.00 0.80 0.00 89 1014.0
20210623071810 80 33 0.0 0.0 0.00 0.81 0.00 89 1014.0
20210623071308 80 33 0.0 0.0 0.00 0.81 0.00 89 1014.2
20210623070811 80 33 0.0 0.0 0.00 0.81 0.00 89 1014.2
20210623070309 80 33 0.0 0.0 0.00 0.81 0.00 88 1014.3
20210623065809 80 33 0.0 0.0 0.00 0.81 0.00 88 1014.3
20210623065309 80 33 0.0 0.0 0.00 0.81 0.00 87 1014.2
20210623064809 80 33 0.0 0.0 0.00 0.81 0.00 87 1014.3
20210623064308 80 33 0.0 0.0 0.00 0.81 0.00 87 1014.4
20210623063811 80 33 0.0 0.0 0.00 0.81 0.00 87 1014.4
20210623063308 80 33 0.0 0.0 0.00 0.81 0.00 86 1014.3
20210623062808 81 33 0.0 0.0 0.00 0.81 0.00 86 1014.2
20210623062308 81 33 0.0 0.0 0.00 0.81 0.00 86 1014.3
20210623061809 81 33 0.0 0.0 0.00 0.81 0.00 86 1014.2
20210623061307 81 33 0.0 0.0 0.00 0.81 0.00 86 1014.3
20210623060808 81 33 0.0 0.0 0.00 0.81 0.00 86 1014.3